Regional Weather Roundup
Issued by NWS Memphis, TN

Home | Current Version | Previous Version | Text Only | Print | Product List | Glossary On
Versions: 1 2 3 4 5 6 7 8 9 10 11 12 13 14 15 16 17 18 19 20 21 22 23 24 25 26 27 28 29 30 31 32 33 34 35 36 37 38 39 40 41 42 43 44 45 46 47 48 49 50
000
ASUS44 KMEG 040210
RWRMEG
MEMPHIS CWA HOURLY WEATHER ROUNDUP
NATIONAL WEATHER SERVICE MEMPHIS TN
900 PM CDT FRI JUL 03 2015

...WEST TENNESSEE...

CITY           SKY/WX    TMP DP  RH WIND       PRES   REMARKS
MEMPHIS INTL   CLOUDY    75  70  84 W7        29.89R
NWS MEMPHIS      N/A     74 N/A N/A MISG        N/A
JACKSON        CLOUDY    73  71  93 SW6       29.89F
LEXINGTON      MOCLDY    72  70  94 S3        29.90F
DYERSBURG        N/A    N/A N/A N/A MISG        N/A
PARIS          MOCLDY    70  68  94 CALM      29.90R


...EASTERN ARKANSAS...

CITY           SKY/WX    TMP DP  RH WIND       PRES   REMARKS
JONESBORO      MOCLDY    74  73  97 NE3       29.87R
WEST MEMPHIS   CLOUDY    73  71  93 SW6       29.87S
BATESVILLE     CLOUDY    72  68  88 CALM      29.87S
NEWPORT        CLOUDY    73  71  93 CALM      29.88R
WALNUT RIDGE   MOCLDY    75  72  88 CALM      29.87S
BLYTHEVILLE    MOCLDY    76  74  93 CALM      29.87F
SEARCY         LGT RAIN  75  72  90 SW3       29.88S
STUTTGART      PTCLDY    73  70  88 W7        29.88S
PINE BLUFF     MOCLDY    74  72  93 S5        29.91R
MONTICELLO     MOCLDY    75  74  96 CALM      29.92R


...NORTH MISSISSIPPI...

CITY           SKY/WX    TMP DP  RH WIND       PRES   REMARKS
TUPELO         CLOUDY    72  68  87 SW9       29.92F
OLIVE BRANCH     N/A     72  72 100 W3        29.90R
TUNICA         MOCLDY    72  70  94 SW8       29.89F
CLARKSDALE     MOCLDY    72  72 100 S6        29.91S
CORINTH        CLOUDY    73  70  88 CALM      29.91S
GREENWOOD      CLOUDY    71  67  87 S8        29.95R
COLUMBUS       LGT RAIN  70  68  94 SE1       29.96F
STARKVILLE     RAIN      70  68  94 CALM      29.96F
GOLDEN TRIANGL CLOUDY    72  66  83 CALM      29.96F


...SOUTHEAST MISSOURI...

CITY           SKY/WX    TMP DP  RH WIND       PRES   REMARKS
WEST PLAINS    PTCLDY    72  68  87 CALM      29.92S
POPLAR BLUFF   MOCLDY    73  71  93 S7        29.88R
CAPE GIRARDEAU PTCLDY    71  70  96 W3        29.87F


...NORTHWEST ALABAMA...

CITY           SKY/WX    TMP DP  RH WIND       PRES   REMARKS
MUSCLE SHOALS  CLOUDY    71  69  93 SE5       29.95S


...MIDDLE TENNESSEE...

CITY           SKY/WX    TMP DP  RH WIND       PRES   REMARKS
NASHVILLE      CLOUDY    74  68  81 SW3       29.91F
CLARKSVILLE    MOCLDY    73  68  84 W5        29.89S
COLUMBIA       CLOUDY    73  70  88 SW5       29.92F


...WESTERN KENTUCKY...

CITY           SKY/WX    TMP DP  RH WIND       PRES   REMARKS
PADUCAH        CLOUDY    72  69  90 S5        29.86F
FORT CAMPBELL  MOCLDY    73  69  87 SW7       29.89S


...CENTRAL ARKANSAS...

CITY           SKY/WX    TMP DP  RH WIND       PRES   REMARKS
LITTLE ROCK    MOCLDY    75  71  87 CALM      29.89S


SKY/WX REPORTED AS FAIR MEANS FEW OR NO CLOUDS BELOW
12 THOUSAND FEET.



USA.gov is the U.S. government's official web portal to all federal, state and local government web resources and services.